ORBVIEW 2 (SEASTAR) 1 24883U 97037A 13168.95576260 .00000105 00000-0 54255-4 0 598 2 24883 98.4523 283.7040 0003564 111.6455 1.2845 14.32648756842766 METEOSAT-7 1 24932U 97049B 13169.77422185 .00000057 00000-0 00000+0 0 6904 2 24932 8.4286 52.1606 0001882 88.3761 102.9961 1.00277132 57858 NOAA 15 1 25338U 98030A 13170.48614529 .00000113 00000-0 66805-4 0 7725 2 25338 98.7239 160.6784 0011875 119.6635 51.9922 14.25231782785177 NOAA 16 1 26536U 00055A 13170.24572284 .00000079 00000-0 66795-4 0 2512 2 26536 99.0425 223.0326 0011616 128.3399 271.4361 14.12886988656861 GOES 12 1 26871U 01031A 13170.17007228 -.00000283 00000-0 00000+0 0 1061 2 26871 3.0566 69.3569 0003771 53.4982 145.6786 1.00281519 43677 FENGYUN 1D 1 27431U 02024B 13169.36698988 .00000126 00000-0 97062-4 0 3274 2 27431 98.8160 133.4096 0014595 235.5303 124.4492 14.09401035570760 NOAA 17 1 27453U 02032A 13170.47545028 .00000041 00000-0 35141-4 0 1686 2 27453 98.3119 184.4360 0012531 154.4542 5.3096 14.24596992571048 METEOSAT-8 (MSG-1) 1 27509U 02040B 13170.07863314 .00000024 00000-0 00000+0 0 4195 2 27509 2.1291 62.6208 0002018 51.8166 184.8536 1.00271581 39666 KALPANA-1 (METSAT 1) 1 27525U 02043A 13169.23825699 .00000000 00000-0 10000-3 0 7198 2 27525 3.6535 66.8147 0005060 260.0148 99.6277 1.00269275 39441 INSAT-3A 1 27714U 03013A 13169.39815251 .00000000 00000-0 10000-3 0 7321 2 27714 0.0081 217.4839 0000629 167.4166 118.7308 1.00265218 37355 FENGYUN 2C 1 28451U 04042A 13169.08928623 .00000000 00000-0 10000-3 0 7080 2 28451 4.7425 62.4330 0001028 95.3685 264.4300 1.00271193 31703 HIMAWARI-6 (MTSAT-1R) 1 28622U 05006A 13170.31484384 -.00001132 -42363-6 10000-3 0 8961 2 28622 0.0048 183.2178 0000791 351.7025 346.0479 1.00256287 30337 NOAA 18 1 28654U 05018A 13170.50340605 .00000028 00000-0 40451-4 0 6551 2 28654 99.0994 138.7531 0014056 198.0762 310.3392 14.11829190416383 METEOSAT-9 (MSG-2) 1 28912U 05049B 13170.07877036 .00000066 00000-0 00000+0 0 5919 2 28912 0.3911 315.1427 0001730 122.8259 227.1432 1.00270771 27512 MTSAT-2 1 28937U 06004A 13170.26663362 .00000000 00000-0 10000-3 0 4488 2 28937 0.0079 204.7829 0003960 230.1872 73.6196 1.00265592 26886 FORMOSAT-3 FM6 1 29047U 06011A 13169.08375534 .00000135 00000-0 70607-4 0 1237 2 29047 71.9815 284.7238 0050524 149.8001 262.6460 14.27681401376318 FORMOSAT-3 FM1 1 29048U 06011B 13169.16825078 .00000123 00000-0 65915-4 0 2043 2 29048 71.9679 198.3140 0042908 101.3102 321.5807 14.27677611378805 FORMOSAT-3 FM5 1 29049U 06011C 13168.06851943 .00000164 00000-0 82485-4 0 1407 2 29049 72.0212 357.7760 0034864 154.4205 352.3634 14.27691511374424 FORMOSAT-3 FM3 1 29050U 06011D 13168.16695755 .00000357 00000-0 90602-4 0 4741 2 29050 72.0177 40.2719 0054345 286.0624 73.4546 14.55895116383697 FORMOSAT-3 FM4 1 29051U 06011E 13169.06642860 .00000167 00000-0 82027-4 0 1952 2 29051 72.0075 262.2921 0068941 22.0762 42.2674 14.27699175377150 FORMOSAT-3 FM2 1 29052U 06011F 13168.81270733 .00000034 00000-0 29812-4 0 2161 2 29052 72.0363 329.4591 0039899 118.4032 342.4458 14.27754162375421 GOES 13 1 29155U 06018A 13170.38114777 -.00000246 00000-0 10000-3 0 6058 2 29155 0.1833 262.5860 0004188 176.5123 250.5766 1.00282715 25929 METOP-A 1 29499U 06044A 13180.47781023 .00000126 00000-0 57635-4 0 699 2 29499 98.7133 239.9998 0001841 68.5198 291.6782 14.21504247347320 FENGYUN 2D 1 29640U 06053A 13169.21835829 .00000000 00000-0 10000-3 0 7018 2 29640 1.6067 72.1782 0002265 25.0649 334.2105 1.00261865 23957 FENGYUN 3A 1 32958U 08026A 13180.45547898 .00000073 00000-0 34612-4 0 313 2 32958 98.6046 245.2467 0009806 151.9749 208.2559 14.19354094263801 NOAA 19 1 33591U 09005A 13170.44918168 .00000031 00000-0 41232-4 0 8380 2 33591 98.9034 112.4959 0015128 66.1934 67.2267 14.11516180224818 GOES 14 1 35491U 09033A 13170.35492535 -.00000084 00000-0 00000+0 0 9986 2 35491 0.2456 83.2147 0004411 101.3876 105.5130 1.00271959 14590 METEOR-M 1 1 35865U 09049A 13180.47006957 .00000019 00000-0 88317-5 0 5527 2 35865 98.6028 232.5939 0002967 45.4925 314.7105 14.21888461196211 GOES 15 1 36411U 10008A 13169.68261663 .00000088 00000-0 10000-3 0 6135 2 36411 0.1928 88.3668 0002171 15.9200 274.0207 1.00285714 12096 COMS 1 1 36744U 10032A 13168.95861191 .00000000 00000-0 10000-3 0 5955 2 36744 0.0254 47.6817 0000868 99.0931 232.8417 1.00264299 9619 FENGYUN 3B 1 37214U 10059A 13180.47955759 .00000071 00000-0 33641-4 0 8950 2 37214 98.8007 125.2144 0001581 40.1383 320.0412 14.19344730137306 ELEKTRO-L 1 (GOMS 2) 1 37344U 11001A 13168.83497954 -.00000092 00000-0 00000+0 0 6473 2 37344 0.0907 87.4696 0002673 45.7715 149.6146 1.00269948 8879 SUOMI NPP 1 37849U 11061A 13180.47403928 .00000060 00000-0 28484-4 0 5172 2 37849 98.7488 118.8441 0001215 32.0718 328.1045 14.19552766 86568 FENGYUN 2F 1 38049U 12002A 13168.72434312 .00000000 00000-0 10000-3 0 3868 2 38049 1.2771 278.1410 0003385 260.1551 100.6441 1.00273883 5290 METOP-B 1 38771U 12049A 13180.44595331 .00000080 00000-0 36656-4 0 2350 2 38771 98.7027 240.6226 0002348 130.1363 230.0627 14.21492467 40450 METEOSAT-10 (MSG-3) 1 38552U 12035B 13169.93514348 .00000001 00000-0 00000+0 0 3737 2 38552 1.0975 242.7344 0001008 234.3541 126.8244 1.00263823 3638